This is the latest recevied weather packets stored in our database for station/object KC9EGS. If no packets are shown the sender has not sent any weather packets the latest 10 day(s).
| Time | Temp. | Humidity | Pressure | Rain* | Wind** | Luminosity | Snow |
|---|---|---|---|---|---|---|---|
| 1777787711 | 10° C | 54% | 1004 hPa | 0 mm | - | - | - |
| 1777787117 | 10° C | 54% | 1004 hPa | 0 mm | - | - | - |
| 1777786812 | 10° C | 54% | 1004.1 hPa | 0 mm | - | - | - |
| 1777786518 | 10° C | 53% | 1004.1 hPa | 0 mm | - | - | - |
| 1777785912 | 10° C | 52% | 1004 hPa | 0 mm | - | - | - |
| 1777785317 | 10.56° C | 53% | 1004 hPa | 0 mm | - | - | - |
| 1777785012 | 10.56° C | 52% | 1004.2 hPa | 0 mm | - | - | - |
| 1777784717 | 10.56° C | 53% | 1004.2 hPa | 0 mm | - | - | - |
| 1777784113 | 10.56° C | 51% | 1004.3 hPa | 0 mm | - | - | - |
| 1777783517 | 10.56° C | 50% | 1004.3 hPa | 0 mm | - | - | - |
| 1777783212 | 10.56° C | 50% | 1004.4 hPa | 0 mm | - | - | - |
| 1777782312 | 10.56° C | 51% | 1004.8 hPa | 0 mm | - | - | - |
| 1777781717 | 10.56° C | 50% | 1004.8 hPa | 0 mm | - | - | - |
| 1777781411 | 10.56° C | 50% | 1004.9 hPa | 0 mm | - | - | - |
| 1777781117 | 10.56° C | 50% | 1004.9 hPa | 0 mm | - | - | - |
| 1777780512 | 10° C | 51% | 1005.1 hPa | 0 mm | - | - | - |
| 1777779916 | 10° C | 51% | 1005.1 hPa | 0 mm | - | - | - |
| 1777779612 | 9.44° C | 53% | 1005.6 hPa | 0 mm | - | - | - |
| 1777779317 | 8.89° C | 54% | 1005.6 hPa | 0 mm | - | - | - |
| 1777778711 | 8.89° C | 58% | 1005.8 hPa | 0 mm | - | - | - |
| 1777778116 | 8.89° C | 58% | 1005.8 hPa | 0 mm | - | - | - |
| 1777777811 | 8.89° C | 56% | 1006 hPa | 0 mm | - | - | - |
| 1777777518 | 8.89° C | 57% | 1006 hPa | 0 mm | - | - | - |
| 1777776913 | 8.89° C | 57% | 1006.2 hPa | 0 mm | - | - | - |
| 1777776316 | 9.44° C | 56% | 1006.2 hPa | 0 mm | - | - | - |
* Rain latest hour (hover to see other rain measurements)
** Current wind speed in m/s (hover to see current wind gust speed)